Regional Weather Roundup
Issued by NWS

Home | Current Version | Previous Version | Text Only | Print | Product List | Glossary Off
Versions: 1 2 3 4 5 6 7 8 9 10 11 12 13 14 15 16 17 18 19 20 21 22 23 24 25 26 27 28 29 30 31 32 33 34 35 36 37 38 39 40 41 42 43 44 45 46 47 48 49 50

465
ASUS43 KOAX 061710
RWRNE

WEATHER ROUNDUP FOR NEBRASKA
NATIONAL WEATHER SERVICE OMAHA NE
1100 AM CST TUE DEC 06 2016

NOTES: SATELLITE DATA IS BEING USED TO AUGMENT CLOUD COVER ABOVE
       12000 FEET.
       "FAIR" INDICATES FEW OR NO CLOUDS BELOW 12,000 FEET WITH NO
       SIGNIFICANT WEATHER AND/OR OBSTRUCTIONS TO VISIBILITY.

  * THESE STATIONS DO NOT REPORT WEATHER SUCH AS RAIN...SNOW OR FOG.

NEZ001>004-019>022-054>056-061800-
NEBRASKA PANHANDLE

CITY           SKY/WX    TMP DP  RH WIND       PRES   REMARKS
SCOTTSBLUFF    SUNNY     20   5  52 NW8       30.01S WCI  10
ALLIANCE       SUNNY     18   5  57 NW9       30.00R WCI   7
CHADRON        SUNNY     18   5  57 W14       30.04S WCI   4
KIMBALL        SUNNY     22   2  40 W13       29.96S WCI  10
SIDNEY         SUNNY     23   2  40 NW10      29.99R WCI  12
$$

NEZ057>060-069>072-079>082-061800-
SOUTHWEST NEBRASKA

CITY           SKY/WX    TMP DP  RH WIND       PRES   REMARKS
NORTH PLATTE   SUNNY     29  10  45 NW15      30.04S WCI  18
IMPERIAL       SUNNY     27   7  42 W10       30.05S WCI  17
LEXINGTON      SUNNY     28  11  48 NW16      30.06S WCI  17
MCCOOK         SUNNY     26   8  46 W15       30.09R WCI  14
OGALLALA       SUNNY     26   7  44 NW15      30.04R WCI  14
$$

NEZ005>010-023>029-035>040-094-061800-
NORTH CENTRAL NEBRASKA

CITY           SKY/WX    TMP DP  RH WIND       PRES   REMARKS
VALENTINE      SUNNY     20   4  50 W17       30.02R WCI   5
AINSWORTH      SUNNY     21   6  52 NW21G29   30.01S WCI   5
BROKEN BOW     SUNNY     26   9  48 NW20      30.03R WCI  12
O`NEILL        SUNNY     24   9  51 NW25G36   30.00S WCI   8
ORD            SUNNY     26   6  42 NW22G29   30.04R WCI  12
THEDFORD       SUNNY     26  11  52 NW13G18   30.01F WCI  15
$$

NEZ041-046>049-061>064-073>077-083>087-061800-
SOUTH CENTRAL NEBRASKA

CITY           SKY/WX    TMP DP  RH WIND       PRES   REMARKS
GRAND ISLAND   SUNNY     29  11  47 NW20G25   30.06R WCI  16
AURORA         SUNNY     30  11  45 NW21      30.06R WCI  17
HASTINGS       SUNNY     30  12  47 NW18      30.07R WCI  18
HEBRON         SUNNY     30  17  59 W8        30.10S WCI  23
HOLDREGE       SUNNY     30   8  39 NW14G26   30.06S WCI  19
KEARNEY *      SUNNY     28   9  43 NW10G17   30.06S WCI  19
YORK           SUNNY     30  14  51 NW21      30.05S WCI  17
$$

NEZ011>018-030>034-042>045-061800-
NORTHEAST NEBRASKA

CITY           SKY/WX    TMP DP  RH WIND       PRES   REMARKS
NORFOLK        SUNNY     25   6  44 NW25G37   29.99R WCI   9
ALBION         SUNNY     26   8  45 NW17G28   30.03S WCI  13
BLAIR          SUNNY     27  13  55 W15G24    30.01S WCI  16
FREMONT        SUNNY     29  12  49 W26G36    30.03F WCI  14
TEKAMAH        SUNNY     28  13  53 NW23G30   30.02S WCI  14
WAYNE          SUNNY     24   9  51 W26G35    29.99R WCI   8
$$

NEZ050>053-065>068-078-088>093-061800-
SOUTHEAST NEBRASKA

CITY           SKY/WX    TMP DP  RH WIND       PRES   REMARKS
LINCOLN        SUNNY     31   8  38 NW26G37   30.05F WCI  17
OMAHA EPPLEY   SUNNY     29  13  51 NW21      30.04R WCI  16
BEATRICE       SUNNY     32  12  43 NW17      30.08S WCI  21
FALLS CITY     SUNNY     31  13  47 NW18      30.07R WCI  19
NEBRASKA CITY  SUNNY     30   9  40 NW21G26   30.05S WCI  18
PLATTSMOUTH    SUNNY     29   8  41 NW23G31   30.03S WCI  15
$$

NEZ044-045-051>053-067-061800-
OMAHA AREA

CITY           SKY/WX    TMP DP  RH WIND       PRES   REMARKS
OMAHA EPPLEY   SUNNY     29  13  51 NW21      30.04R WCI  16
BLAIR          SUNNY     27  13  55 W15G24    30.01S WCI  16
FREMONT        SUNNY     29  12  49 W26G36    30.03F WCI  14
MILLARD        SUNNY     29  12  48 NW17G25   30.04S WCI  17
OFFUTT AFB     SUNNY     30  13  50 NW26      30.03S WCI  15
PLATTSMOUTH    SUNNY     29   8  41 NW23G31   30.03S WCI  15
WAHOO          FAIR      30   9  42 NW23G36   30.03F WCI  16
$$




USA.gov is the U.S. government's official web portal to all federal, state and local government web resources and services.